This demonstration page uses our WeatherBlox Daily Observations layout. Learn more.

Left ArrowRight Arrow

30.21309, -93.2044

Hourly Observations for July 25, 2021

Temp ( °F °C ) Dew Point ( °F °C ) Humidity (%) Winds ( mph kmh ) Pressure ( in mb ) Visibility ( mi km ) Precip ( " mm )
12:15 am 00:15 Clear 82 27.8 76 24.6 83 83 W 8 13 30.00 1016 10 16 0.00 0.00
12:35 am 00:35 Clear 82 27.7 76 24.4 82 82 WSW 8 13 30.00 1016 10 16 0.00 0.00
12:55 am 00:55 Clear 82 27.6 76 24.4 83 83 W 8 13 29.99 1016 10 16 0.00 0.00
1:15 am 01:15 Clear 81 27.4 76 24.5 84 84 W 8 13 29.99 1016 10 16 0.00 0.00
1:35 am 01:35 Clear 81 27.3 76 24.5 85 85 W 9 15 29.99 1016 10 16 0.00 0.00
1:55 am 01:55 Clear 81 27.3 76 24.4 84 84 W 7 11 29.99 1016 10 16 0.00 0.00
2:15 am 02:15 Clear 81 27.2 76 24.2 84 84 W 7 11 29.99 1016 10 16 0.00 0.00
2:35 am 02:35 Clear 81 27.1 76 24.2 84 84 W 3 6 29.99 1016 10 16 0.00 0.00
2:55 am 02:55 Clear 80 26.7 76 24.3 87 87 W 3 6 30.00 1016 10 16 0.00 0.00
3:15 am 03:15 Clear 80 26.9 76 24.7 88 88 W 6 9 30.00 1016 10 16 0.00 0.00
3:35 am 03:35 Clear 79 26.1 76 24.3 90 90 Calm 30.00 1016 10 16 0.00 0.00
3:55 am 03:55 Clear 77 25 75 23.7 93 93 Calm 30.01 1016 7 11 0.00 0.00
4:15 am 04:15 Clear 78 25.3 76 24.2 94 94 W 7 11 30.01 1016 10 16 0.00 0.00
4:35 am 04:35 Clear 77 25.1 75 23.7 92 92 N 3 6 30.01 1016 10 16 0.00 0.00
4:55 am 04:55 Clear 77 24.9 75 23.9 94 94 Calm 30.01 1016 7 11 0.00 0.00
5:15 am 05:15 Clear 77 24.8 75 23.7 94 94 NNW 3 6 30.01 1016 10 16 0.00 0.00
5:35 am 05:35 Clear 76 24.7 74 23.6 94 94 NNW 3 6 30.00 1016 10 16 0.00 0.00
6:00 am 06:00 Mostly Clear 77 25 75 24 94 94 NW 5 7 30.00 1016 10 16 0.00 0.00
6:47 am 06:47 Partly Cloudy 77 25 75 24 94 94 NW 5 7 30.01 1016 10 16 0.00 0.00
7:54 am 07:54 Mostly Sunny 79 26 75 24 89 89 NW 6 9 30.04 1017 7 11 0.00 0.00
8:51 am 08:51 Partly Cloudy 81 27 75 24 84 84 WNW 7 11 30.05 1018 10 16 0.00 0.00
9:55 am 09:55 Partly Cloudy 84 29 75 24 74 74 W 6 9 30.05 1018 10 16 0.00 0.00
10:52 am 10:52 Partly Cloudy 84 29 75 24 74 74 WNW 7 11 30.05 1018 10 16 0.00 0.00
11:51 am 11:51 Hazy 88 31 72 22 59 59 WNW 7 11 30.04 1017 7 11 0.00 0.00
12:46 pm 12:46 Mostly Sunny 90 32 70 21 52 52 W 6 9 30.01 1016 10 16 0.00 0.00
1:47 pm 13:47 Mostly Sunny 91 33 70 21 49 49 Calm 29.99 1016 10 16 0.00 0.00
2:50 pm 14:50 Mostly Sunny 93 34 70 21 47 47 Calm 29.97 1015 10 16 0.00 0.00
3:50 pm 15:50 Mostly Sunny 93 34 66 19 41 41 Calm 29.94 1014 10 16 0.00 0.00
4:50 pm 16:50 Mostly Sunny 95 35 64 18 36 36 Calm 29.93 1014 10 16 0.00 0.00
5:55 pm 17:55 Mostly Sunny 93 34 66 19 41 41 Calm 29.91 1013 10 16 0.00 0.00
6:50 pm 18:50 Mostly Sunny 91 33 73 23 56 56 S 8 13 29.90 1012 10 16 0.00 0.00
7:50 pm 19:50 Mostly Sunny 90 32 72 22 55 55 S 7 11 29.91 1013 10 16 0.00 0.00
8:50 pm 20:50 Mostly Clear 84 29 79 26 84 84 S 7 11 29.93 1014 10 16 0.00 0.00
9:50 pm 21:50 Mostly Clear 84 29 79 26 84 84 SW 8 13 29.93 1014 10 16 0.00 0.00
10:15 pm 22:15 Clear 85 29.3 78 25.4 80 80 SW 8 13 29.94 1014 10 16 0.00 0.00
10:35 pm 22:35 Clear 85 29.3 78 25.3 79 79 SW 7 11 29.94 1014 10 16 0.00 0.00
10:55 pm 22:55 Clear 85 29.2 77 25.2 79 79 SW 7 11 29.95 1014 10 16 0.00 0.00
11:15 pm 23:15 Clear 84 29.1 78 25.3 80 80 WSW 6 9 29.95 1014 10 16 0.00 0.00
11:35 pm 23:35 Clear 84 28.9 77 25.2 80 80 WSW 9 15 29.95 1014 10 16 0.00 0.00
11:55 pm 23:55 Clear 84 28.8 77 25 80 80 WSW 8 13 29.94 1014 10 16 0.00 0.00

Powered by AerisWeather